Airport Information

KEUG - Mahlon Sweet Fld Airport

KEUG 261754Z 18008KT 10SM FEW029 BKN060 11/07 A3011 RMK AO2 SLP197 60000 T01060072 10106 20072 51022


  • General Information

  • Coordinates: N 44°7'28"/ W 123°12'43"
  • Location: N/A
  • Surveyed Elevation: 374 MSL

Operations

Flow Name Active Runways Conditions
North Flow Landing: 34L/34R
Departing: 34L/34R
Wind Direction: 251-069°
Wind Speed: >10
South Flow Landing: 16L/16R
Departing: 16L/16R
Wind Direction: 070-250°
Wind Speed: ≤10 or CALM

Green background denotes normal operations.


Common Frequencies

Callsign Frequency Position Name
EUG_GND 121.700 Eugene Ground
EUG_TWR 118.900 Eugene Tower
EUG_APP 119.600 Eugene Approach
KEUG_ATIS 125.225 Eugene ATIS

More at the Document Center


Charts